Location: *
(40.8320°S, 106.3951°E)
Time: 17:59:14
(UTC+00:00)

Daily predictions for brighter satellites

Satellite Brightness Start Highest point End
(mag) Time Altitude Azimuth Time Altitude Azimuth Time Altitude Azimuth
ATLAS CENTAUR R/B 3.1 12:02:28 10° SSW 12:04:18 24° SSW 12:04:18 24° SSW
Cosmos 1763 Rocket 3.4 12:02:21 10° NNW 12:07:29 82° NNE 12:07:29 82° NNE
CZ-4B R/B 3.5 12:03:37 14° S 12:08:15 62° WSW 12:13:29 10° NNW
Cosmos 1939 Rocket 4.4 12:07:16 19° SSW 12:09:42 37° WSW 12:13:33 10° NW
BREEZE-M DEB (TANK) 4.4 12:06:30 10° W 12:14:02 40° SSW 12:14:29 39° S
Cosmos 883 Rocket 4.4 12:09:22 10° S 12:15:39 89° W 12:21:56 10° N
ATLAS 3B R/B 4.5 12:12:13 10° W 12:18:24 27° SW 12:23:20 14° SSE
SJ 16-02 3.2 12:24:51 10° SW 12:28:42 29° W 12:31:19 16° NNW
Lacrosse 5 2.8 12:25:59 10° SW 12:30:30 46° WNW 12:30:30 46° WNW
H-2A R/B 4.3 12:39:59 13° NNW 12:39:59 13° NNW 12:40:33 10° NNW
Okean O Rocket 3.7 12:42:13 25° SW 12:42:46 26° WSW 12:46:27 10° WNW
SL-16 R/B 3.8 12:44:31 10° WNW 12:49:31 31° WSW 12:50:47 28° SSW
NOSS 3-1 (C) 4.3 12:52:57 10° NNW 13:00:33 67° NNW 13:00:33 67° NNW
Cosmos 1943 Rocket 4.4 13:23:39 10° SW 13:25:59 20° WSW 13:25:59 20° WSW
Cosmos 2227 Rocket 4.4 20:42:54 17° SSE 20:42:54 17° SSE 20:44:06 10° SSE
SL-4 R/B 4.5 21:05:17 20° ESE 21:05:17 20° ESE 21:06:50 10° E
Nadezhda 4 Rocket 4.1 21:05:22 64° SSE 21:06:15 73° E 21:12:34 10° NNE
Cosmos 2098 Rocket 4.1 21:17:45 47° NE 21:17:45 47° NE 21:21:58 10° NNE
Envisat 3.3 21:15:03 10° NNE 21:20:05 63° ESE 21:20:38 59° SE
Cosmos 1954 Rocket 4.4 21:27:40 53° SSE 21:27:40 53° SSE 21:31:44 10° SSE
Cosmos 2263 Rocket 3.4 21:23:46 10° N 21:29:05 41° ENE 21:34:26 10° SE
NOSS 2-3 (C) 4.4 21:28:32 49° SSW 21:30:20 74° SE 21:35:38 10° NE
Meteor 2-1 Rocket 4.2 21:27:53 10° N 21:33:24 80° E 21:39:03 10° SSE
CZ-3 R/B 4.1 21:13:44 11° NW 21:33:50 34° N 21:41:00 10° ENE
deb Chang Zheng 4 4.4 21:30:53 10° NNE 21:34:59 49° ESE 21:36:27 34° SSE
SL-16 R/B 2.1 21:43:39 65° W 21:43:52 66° WNW 21:49:30 10° N
Cosmos 1850 Rocket 4.5 21:47:37 10° N 21:52:48 61° ENE 21:58:01 10° SSE
USA 229 DEB 3.5 21:52:37 28° SSW 21:56:27 85° SE 22:02:49 10° NE
USA 229 3.5 21:52:41 28° SSW 21:56:32 84° SE 22:02:54 10° NE
Okean O Rocket 3.7 21:58:57 10° ENE 22:02:35 26° ESE 22:06:17 10° SSE
Cosmos 1741 Rocket 4.2 21:59:37 10° NNW 22:04:54 75° ENE 22:10:16 10° SSE
ASTEX 1 3.5 22:01:26 10° S 22:06:16 51° W 22:11:04 10° NNW
COSMOS 2455 4.2 22:08:23 22° SSW 22:08:23 22° SSW 22:12:08 10° S
Cosmos-2242 4.1 22:05:32 10° NNE 22:09:45 47° E 22:14:03 10° SSE
Cosmos 1076 Rocket 3.4 22:06:22 14° S 22:10:09 84° W 22:14:34 10° N
Cosmos 2195 Rocket 4.4 22:04:31 10° SSW 22:10:39 65° W 22:16:46 10° N
X-37B 1.5 22:10:50 40° SSE 22:10:50 40° SSE 22:13:49 10° E
PSLV R/B 3.9 22:09:30 10° NNE 22:13:35 83° ESE 22:17:29 11° S
FALCON 9 DEB 3.2 22:13:58 55° NNW 22:13:58 55° NNW 22:16:49 10° NE
Cosmos 2151 3.5 22:11:21 10° S 22:15:40 60° E 22:19:57 10° NNE
NOSS 3-1 (A) 3.1 22:13:06 24° SW 22:16:51 76° WNW 22:22:07 10° NNE
FALCON 9 DEB 3.3 22:17:10 48° NNW 22:17:10 48° NNW 22:19:59 10° NNE
Cosmos 1634 Rocket 4.0 22:11:24 10° NNW 22:17:40 63° W 22:24:02 10° S
Cosmos 2227 4.1 22:13:48 10° NNW 22:19:27 86° WSW 22:25:12 10° SSE
Meteor 2-19 Rocket 4.5 22:14:03 10° SSW 22:20:00 54° W 22:25:55 10° NNW
Cosmos 1633 2.5 22:17:28 15° S 22:20:32 90° ESE 22:24:11 10° N
CZ-4 R/B 4.5 22:18:55 10° E 22:20:33 12° ESE 22:22:10 10° SE
Cosmos 2227 Rocket 4.0 22:24:45 14° SSW 22:24:45 14° SSW 22:26:28 10° SSW
Cosmos 2297 Rocket 4.3 22:27:26 10° SSW 22:27:26 10° SSW 22:27:34 10° SSW
NOSS 3-1 (C) 3.8 22:24:03 29° WSW 22:25:52 35° WNW 22:30:38 10° N
DELTA 2 R/B (1) 3.7 22:24:01 29° W 22:26:55 68° NNW 22:32:31 10° ENE
Gbstr 26 Del rocket 3.9 22:30:47 24° SW 22:31:23 26° SSW 22:34:48 10° SE
Cosmos 1763 Rocket 3.6 22:29:44 12° SSW 22:34:31 57° WNW 22:39:37 10° N
USA 215 3.6 22:29:17 10° SE 22:35:54 68° NE 22:42:27 10° NW
CZ-2C R/B 3.6 22:30:29 10° NNE 22:35:55 64° ESE 22:41:08 10° S
CZ-4B R/B 4.4 22:32:34 10° NW 22:35:05 21° WNW 22:35:05 21° WNW
MOS 1 Rocket 3.6 22:31:54 10° S 22:37:26 80° WSW 22:42:52 10° NNW
CZ-4B DEB 4.3 22:32:59 10° N 22:38:29 60° WNW 22:44:01 10° SSW
FALCON 9 DEB 3.6 22:37:59 32° W 22:38:50 39° NW 22:41:51 10° NNE
FengYun 1-2 T 4.2 22:34:25 10° N 22:40:06 78° WNW 22:45:48 10° SSW
NOAA 12 4.2 22:35:21 10° N 22:40:36 57° W 22:45:57 10° SSW
SL-4 R/B 2.0 22:40:52 25° WSW 22:43:05 59° NW 22:46:50 10° NE
Cosmos 1655 Rocket 4.3 22:40:09 10° S 22:46:40 75° E 22:53:04 10° NNE
Cosmos 841 Rocket 3.5 22:44:17 10° SSW 22:49:39 89° WNW 22:54:57 10° NNE
Aureole 1 Rocket 4.5 22:44:21 10° NNW 22:51:27 67° WSW 22:59:54 10° SSE
Aureole 3 4.1 22:51:02 10° NW 22:54:12 29° WSW 22:58:02 10° S
AQUARIUS 4.4 22:49:49 10° N 22:54:13 51° W 22:58:41 10° SSW
CZ-4C R/B 3.1 22:50:52 10° S 22:54:19 50° WSW 22:57:39 10° NNW
CORIOLIS 4.2 22:49:02 10° N 22:54:20 59° WNW 22:59:44 10° SSW
Cosmos 1939 Rocket 2.8 22:51:02 10° N 22:54:58 68° W 22:59:01 10° SSW
Meteor 1-4 Rocket 2.7 22:53:35 10° NNW 22:57:01 45° WSW 23:00:28 10° S
Cosmos 839 Rocket 4.3 22:51:56 10° WNW 22:57:51 43° SW 23:03:47 10° SSE
Meteor 2-3 Rocket 3.8 22:52:36 10° SSW 22:58:26 67° W 23:04:13 10° N
Cosmos 2279 Rocket 4.2 22:54:56 10° NNW 23:00:54 46° WSW 23:06:58 10° S
Cosmos 1603 3.8 22:56:01 10° SSW 23:01:41 60° WNW 23:07:20 10° N
USA 267 4.2 23:01:54 10° E 23:07:57 40° SSE 23:14:00 10° SW
Meteor 1-27 4.2 23:06:00 10° NNW 23:11:30 59° WSW 23:17:05 10° S
Cosmos 540 Rocket 3.8 23:07:56 10° SSW 23:12:57 47° WNW 23:17:53 10° N
SMAP 4.0 23:09:02 10° NNW 23:13:05 29° W 23:17:12 10° SW
Cosmos 2263 Rocket 3.0 23:08:09 10° WNW 23:13:06 30° SW 23:18:06 10° S
Cosmos 1844 Rocket 3.3 23:08:22 10° N 23:13:58 64° ENE 23:19:38 10° SSE
H-2A R/B 2.0 23:11:47 10° S 23:16:03 69° WSW 23:20:21 10° NNW
IRIDIUM 106 4.3 23:11:38 10° N 23:16:52 72° W 23:22:11 10° S
Okean 3 Rocket 3.6 23:13:54 10° SSW 23:18:29 72° W 23:23:02 10° N
COSMO-SKYMED 1 2.6 23:15:17 10° S 23:19:41 66° WSW 23:24:00 10° NNW
Landsat 5 4.4 23:16:20 10° S 23:20:20 31° WSW 23:24:20 10° NW
ASTRO F (AKARI) 4.2 23:17:18 10° N 23:20:25 66° WNW 23:23:34 10° SSW
Aureole 3 Rocket 3.8 23:17:36 10° N 23:21:21 61° E 23:26:32 10° SSE
Cosmos 1766 Rocket 3.7 23:21:15 10° SSW 23:25:38 58° W 23:29:56 10° N
ATLAS 5 CENTAUR R/B 3.1 23:20:33 10° SSW 23:25:47 40° SE 23:30:11 10° ENE
Cosmos 2266 Rocket 4.1 23:20:26 10° SSW 23:26:44 64° W 23:33:04 10° N
Meteor 2-8 Rocket 4.5 23:20:47 10° N 23:26:56 82° W 23:33:13 10° S
Cosmos 921 Rocket 3.4 23:23:08 10° SSW 23:27:32 49° WNW 23:31:54 10° N
H-2A R/B 3.1 23:24:12 10° NNW 23:28:09 36° W 23:32:02 10° SSW
Cosmos 1869 4.0 23:24:52 10° NW 23:28:40 35° WSW 23:32:32 10° S
GPS 2-04 Rocket1 3.8 23:26:43 10° WNW 23:29:49 32° N 23:32:55 10° ENE
Cosmos 1943 3.9 23:25:21 10° SW 23:30:31 36° WNW 23:35:36 10° N
Feng Yun 1-1 Rocket 4.5 23:27:00 10° N 23:32:56 78° WNW 23:38:58 10° SSW
Cosmos 1241 Rocket 4.5 23:27:00 10° NW 23:33:06 62° SW 23:39:16 10° SSE
